User: anonymous   Login
Location: Los Gatos B&B
(42.6926°N, 77.0646°W)
Time: 07:30:06
(UTC-05:00)
Language:

SL-16 R/B - Orbit

View from above orbital plane
View from above orbital plane
View from above satellite
View from above satellite

Ground track
Ground track

The orbit data is extracted from the following two-line orbital elements,

1 28353U 04021B   15059.18410951  .00000290  00000-0  17742-3 0  9992
2 28353 071.0015 040.0025 0004228 007.4150 352.7034 14.14121393553401
Epoch (UTC): 28 February 2015 04:25:07
Eccentricity: 0.0004228
inclination: 71.0015°
perigee height: 842 km
apogee height: 848 km
right ascension of ascending node: 40.0025°
argument of perigee: 7.4150°
revolutions per day: 14.14121393
mean anomaly at epoch: 352.7034°
orbit number at epoch: 55340

The dashed part of the orbit path shows where the satellite is in the earth's shadow,  

DLR